User: anonymous   Login
Location: Unspecified
(0.0000°N, 0.0000°E)
Time: 10:20:03
(UTC+00:00)
Language:

GONETS M 09 (M19) - Orbit

View from above orbital plane
View from above orbital plane
View from above satellite
View from above satellite

Ground track
Ground track

The orbit data is extracted from the following two-line orbital elements,

1 40062U 14036B   17080.82697016 +.00000010 +00000-0 +00000-0 0  9992
2 40062 082.5071 243.3605 0021414 315.0801 044.8542 12.42883922123262
Epoch (UTC): 21 March 2017 19:50:50
Eccentricity: 0.0021414
inclination: 82.5071°
perigee height: 1477 km
apogee height: 1511 km
right ascension of ascending node: 243.3605°
argument of perigee: 315.0801°
revolutions per day: 12.42883922
mean anomaly at epoch: 44.8542°
orbit number at epoch: 12326

The dashed part of the orbit path shows where the satellite is in the earth's shadow,  

DLR